Regional Weather Roundup
Issued by NWS Memphis, TN

Home | Current Version | Previous Version | Text Only | Print | Product List | Glossary On
Versions: 1 2 3 4 5 6 7 8 9 10 11 12 13 14 15 16 17 18 19 20 21 22 23 24 25 26 27 28 29 30 31 32 33 34 35 36 37 38 39 40 41 42 43 44 45 46 47 48 49 50
000
ASUS44 KMEG 290000
RWRMEG
MEMPHIS CWA HOURLY WEATHER ROUNDUP
NATIONAL WEATHER SERVICE MEMPHIS TN
700 PM CDT SUN AUG 28 2016

...WEST TENNESSEE...

CITY           SKY/WX    TMP DP  RH WIND       PRES   REMARKS
MEMPHIS INTL   PTCLDY    93  66  40 E9        30.02R HX  96
6HR MIN TEMP:  93; 6HR MAX TEMP:  98;

NWS MEMPHIS      N/A     87 N/A N/A MISG        N/A
JACKSON        CLEAR     86  76  71 CALM      30.05R HX  96
6HR MIN TEMP:  86; 6HR MAX TEMP:  93;

DYERSBURG      CLEAR     90  73  58 MISG      30.03S HX  98
6HR MIN TEMP:  88; 6HR MAX TEMP:  99;

PARIS          CLEAR     84  75  74 E5        30.08S HX  92


...EASTERN ARKANSAS...

CITY           SKY/WX    TMP DP  RH WIND       PRES   REMARKS
JONESBORO      CLEAR     82  72  71 E5        30.03R
6HR MIN TEMP:  82; 6HR MAX TEMP:  93;

WEST MEMPHIS   CLEAR     87  74  64 NE5       30.00S HX  95
6HR MIN TEMP:  81; 6HR MAX TEMP:  93; 6HR PCP:  0.07;

BATESVILLE     CLOUDY    79  73  83 W3        30.05S
6HR MIN TEMP:  75; 6HR MAX TEMP:  93; 6HR PCP:  0.20;

NEWPORT        CLOUDY    84  78  82 CALM      30.04  HX  95
6HR MIN TEMP:  83; 6HR MAX TEMP:  93;

WALNUT RIDGE   PTCLDY    84  75  74 E5        30.03R HX  92
6HR MIN TEMP:  84; 6HR MAX TEMP:  91;

BLYTHEVILLE    CLEAR     88  77  69 CALM      30.04R HX 100
6HR MIN TEMP:  86; 6HR MAX TEMP:  93;

SEARCY         CLEAR     86  75  69 NE7       30.04R HX  95
6HR MIN TEMP:  75; 6HR MAX TEMP:  93; 6HR PCP:  0.41;

STUTTGART      CLEAR     90  72  55 E6        30.01S HX  96
6HR MIN TEMP:  90; 6HR MAX TEMP:  93;

PINE BLUFF     CLEAR     91  69  48 E6        30.00S HX  96
6HR MIN TEMP:  90; 6HR MAX TEMP:  94;

MONTICELLO     PTCLDY    92  75  57 CALM      29.99S HX 103
6HR MIN TEMP:  92; 6HR MAX TEMP:  96;



...NORTH MISSISSIPPI...

CITY           SKY/WX    TMP DP  RH WIND       PRES   REMARKS
TUPELO         CLEAR     88  70  55 NE5       30.02R HX  93
6HR MIN TEMP:  87; 6HR MAX TEMP:  95; 6HR PCP: TRACE;

BATESVILLE     PTCLDY    89  70  53 CALM      30.01S HX  93
6HR MIN TEMP:  89; 6HR MAX TEMP:  94;

TUNICA         PTCLDY    86  77  74 NE3       30.01S HX  97
CLARKSDALE     CLEAR     90  75  62 CALM      30.00S HX 100
GREENWOOD      PTCLDY    89  69  51 E6        29.99R HX  93
6HR MIN TEMP:  88; 6HR MAX TEMP:  95;

COLUMBUS       CLEAR     89  75  63 SE7       30.00S HX  99
6HR MIN TEMP:  89; 6HR MAX TEMP:  94; 6HR PCP: TRACE;

GOLDEN TRIANGL CLEAR     90  66  45 SE12      30.01  HX  92


...SOUTHEAST MISSOURI...

CITY           SKY/WX    TMP DP  RH WIND       PRES   REMARKS
KENNETT        CLEAR     88  79  74 CALM      30.02S HX 102
WEST PLAINS    CLEAR     84  70  62 E3        30.11R
6HR MIN TEMP:  84; 6HR MAX TEMP:  90;

POPLAR BLUFF   CLEAR     86  77  74 E3        30.04S HX  97
6HR MIN TEMP:  86; 6HR MAX TEMP:  92;

CAPE GIRARDEAU CLEAR     88  74  63 E6        30.06R HX  96
6HR MIN TEMP:  88; 6HR MAX TEMP:  93;



...NORTHWEST ALABAMA...

CITY           SKY/WX    TMP DP  RH WIND       PRES   REMARKS
MUSCLE SHOALS  CLEAR     87  72  60 E5        30.06R HX  93
6HR MIN TEMP:  87; 6HR MAX TEMP:  94;



...MIDDLE TENNESSEE...

CITY           SKY/WX    TMP DP  RH WIND       PRES   REMARKS
NASHVILLE      PTCLDY    82  71  69 SE5       30.09F
6HR MIN TEMP:  82; 6HR MAX TEMP:  96;

CLARKSVILLE    CLEAR     86  74  67 NE3       30.08R HX  94
6HR MIN TEMP:  86; 6HR MAX TEMP:  95;



...WESTERN KENTUCKY...

CITY           SKY/WX    TMP DP  RH WIND       PRES   REMARKS
PADUCAH        CLEAR     86  75  69 NE7       30.07R HX  95
6HR MIN TEMP:  86; 6HR MAX TEMP:  93;

FORT CAMPBELL  CLEAR     86  76  73 NE7       30.08R HX  96
6HR MIN TEMP:  86; 6HR MAX TEMP:  93;



...CENTRAL ARKANSAS...

CITY           SKY/WX    TMP DP  RH WIND       PRES   REMARKS
LITTLE ROCK    PTCLDY    91  71  51 E6        30.01S HX  97
6HR MIN TEMP:  90; 6HR MAX TEMP:  95;



SKY/WX REPORTED AS FAIR MEANS FEW OR NO CLOUDS BELOW
12 THOUSAND FEET.




USA.gov is the U.S. government's official web portal to all federal, state and local government web resources and services.